Time,TemperatureF,DewpointF,PressureIn,WindDirection,WindDirectionDegrees,WindSpeedMPH,WindSpeedGustMPH,Humidity,HourlyPrecipIn,Conditions,Clouds,dailyrainin,SolarRadiationWatts/m^2,SoftwareType,DateUTC
2013-01-04 00:00:00,30.1,-0.6,30.32,ENE,68,3.0,7.0,26,0.00,,---,0.00,0.00,VWS V14.01,2013-01-04 08:00:00,
2013-01-04 00:03:00,31.2,0.0,30.32,ENE,72,1.0,5.0,26,0.00,,,0.00,0,weatherlink.com 1.10,2013-01-04 08:03:00,
2013-01-04 00:15:00,31.4,-0.3,30.32,ENE,68,1.0,4.0,25,0.00,,---,0.00,0.00,VWS V14.01,2013-01-04 08:15:00,
2013-01-04 00:18:00,31.6,-1.0,30.32,ENE,71,0.0,2.0,25,0.00,,,0.00,0,weatherlink.com 1.10,2013-01-04 08:18:00,
2013-01-04 00:30:00,31.6,0.7,30.32,ENE,68,0.0,0.0,26,0.00,,---,0.00,0.00,VWS V14.01,2013-01-04 08:30:00,
2013-01-04 00:33:00,31.5,0.0,30.32,ENE,72,0.0,0.0,26,0.00,,,0.00,0,weatherlink.com 1.10,2013-01-04 08:33:00,
2013-01-04 00:45:00,31.2,0.3,30.32,ENE,68,0.0,0.0,26,0.00,,---,0.00,0.00,VWS V14.01,2013-01-04 08:45:00,
2013-01-04 00:48:00,30.6,-1.0,30.32,ENE,72,0.0,0.0,26,0.00,,,0.00,0,weatherlink.com 1.10,2013-01-04 08:48:00,
2013-01-04 01:00:00,30.2,-0.6,30.32,ENE,68,0.0,0.0,26,0.00,,---,0.00,0.00,VWS V14.01,2013-01-04 09:00:00,
2013-01-04 01:03:00,29.5,-2.0,30.32,ENE,72,0.0,0.0,26,0.00,,,0.00,0,weatherlink.com 1.10,2013-01-04 09:03:00,
2013-01-04 01:15:00,29.3,-0.5,30.33,ENE,68,0.0,0.0,27,0.00,,---,0.00,0.00,VWS V14.01,2013-01-04 09:15:00,
2013-01-04 01:18:00,28.8,-1.0,30.33,ENE,72,0.0,0.0,28,0.00,,,0.00,0,weatherlink.com 1.10,2013-01-04 09:18:00,
2013-01-04 01:30:00,28.4,-1.3,30.33,ENE,68,0.0,0.0,27,0.00,,---,0.00,0.00,VWS V14.01,2013-01-04 09:30:00,
2013-01-04 01:33:00,27.5,-2.0,30.33,ENE,72,0.0,0.0,28,0.00,,,0.00,0,weatherlink.com 1.10,2013-01-04 09:33:00,
2013-01-04 01:45:00,27.3,-1.5,30.33,ENE,68,0.0,0.0,28,0.00,,---,0.00,0.00,VWS V14.01,2013-01-04 09:45:00,
2013-01-04 01:49:00,26.7,-3.0,30.33,ENE,72,0.0,0.0,28,0.00,,,0.00,0,weatherlink.com 1.10,2013-01-04 09:49:00,
2013-01-04 02:00:00,26.4,-1.5,30.33,ENE,68,0.0,0.0,29,0.00,,---,0.00,0.00,VWS V14.01,2013-01-04 10:00:00,
2013-01-04 02:04:00,25.8,-3.0,30.33,ENE,72,0.0,0.0,29,0.00,,,0.00,0,weatherlink.com 1.10,2013-01-04 10:04:00,
2013-01-04 02:15:00,25.6,-1.5,30.34,ENE,68,0.0,0.0,30,0.00,,---,0.00,0.00,VWS V14.01,2013-01-04 10:15:00,
2013-01-04 02:19:00,25.3,-2.0,30.34,ENE,72,0.0,0.0,30,0.00,,,0.00,0,weatherlink.com 1.10,2013-01-04 10:19:00,
2013-01-04 02:30:00,25.1,-2.7,30.33,ENE,68,1.0,4.0,29,0.00,,---,0.00,0.00,VWS V14.01,2013-01-04 10:30:00,
2013-01-04 02:34:00,24.8,-3.0,30.34,ENE,71,0.0,3.0,29,0.00,,,0.00,0,weatherlink.com 1.10,2013-01-04 10:34:00,
2013-01-04 02:45:00,24.7,-3.0,30.33,ENE,68,1.0,3.0,29,0.00,,---,0.00,0.00,VWS V14.01,2013-01-04 10:45:00,
2013-01-04 02:49:00,24.5,-4.0,30.33,ENE,72,0.0,2.0,29,0.00,,,0.00,0,weatherlink.com 1.10,2013-01-04 10:49:00,
2013-01-04 03:00:00,24.4,-2.6,30.33,ENE,68,0.0,2.0,30,0.00,,---,0.00,0.00,VWS V14.01,2013-01-04 11:00:00,
2013-01-04 03:04:00,24.2,-3.0,30.33,ENE,72,0.0,0.0,31,0.00,,,0.00,0,weatherlink.com 1.10,2013-01-04 11:04:00,
2013-01-04 03:15:00,24.1,-2.2,30.33,ENE,68,0.0,0.0,31,0.00,,---,0.00,0.00,VWS V14.01,2013-01-04 11:15:00,
2013-01-04 03:19:00,23.9,-3.0,30.33,ENE,71,0.0,0.0,31,0.00,,,0.00,0,weatherlink.com 1.10,2013-01-04 11:19:00,
2013-01-04 03:30:00,23.8,-2.4,30.33,ENE,68,1.0,3.0,31,0.00,,---,0.00,0.00,VWS V14.01,2013-01-04 11:30:00,
2013-01-04 03:34:00,23.6,-2.0,30.33,ENE,72,0.0,3.0,32,0.00,,,0.00,0,weatherlink.com 1.10,2013-01-04 11:34:00,
2013-01-04 03:45:00,23.8,-1.7,30.33,ENE,68,1.0,4.0,32,0.00,,---,0.00,0.00,VWS V14.01,2013-01-04 11:45:00,
2013-01-04 03:49:00,24.1,-2.0,30.32,ENE,72,3.0,3.0,32,0.00,,,0.00,0,weatherlink.com 1.10,2013-01-04 11:49:00,
2013-01-04 04:00:00,24.1,-0.8,30.32,ENE,68,2.0,3.0,33,0.00,,---,0.00,0.00,VWS V14.01,2013-01-04 12:00:00,
2013-01-04 04:04:00,24.1,-1.0,30.32,ENE,72,2.0,2.0,33,0.00,,,0.00,0,weatherlink.com 1.10,2013-01-04 12:04:00,
2013-01-04 04:15:00,24.1,-0.2,30.32,ENE,68,1.0,2.0,34,0.00,,---,0.00,0.00,VWS V14.01,2013-01-04 12:15:00,
2013-01-04 04:19:00,24.4,0.0,30.32,ENE,71,0.0,2.0,34,0.00,,,0.00,0,weatherlink.com 1.10,2013-01-04 12:19:00,
2013-01-04 04:30:00,24.4,0.1,30.33,ENE,68,0.0,0.0,34,0.00,,---,0.00,0.00,VWS V14.01,2013-01-04 12:30:00,
2013-01-04 04:34:00,24.5,0.0,30.32,ENE,71,0.0,0.0,34,0.00,,,0.00,0,weatherlink.com 1.10,2013-01-04 12:34:00,
2013-01-04 04:45:00,24.5,-0.5,30.33,ENE,68,0.0,0.0,33,0.00,,---,0.00,0.00,VWS V14.01,2013-01-04 12:45:00,
2013-01-04 04:49:00,24.2,-1.0,30.33,ENE,72,0.0,0.0,33,0.00,,,0.00,0,weatherlink.com 1.10,2013-01-04 12:49:00,
2013-01-04 05:00:00,24.2,-0.1,30.33,ENE,68,0.0,0.0,34,0.00,,---,0.00,0.00,VWS V14.01,2013-01-04 13:00:00,
2013-01-04 05:05:00,23.9,-1.0,30.33,ENE,71,0.0,0.0,34,0.00,,,0.00,0,weatherlink.com 1.10,2013-01-04 13:05:00,
2013-01-04 05:15:00,23.7,1.2,30.33,ENE,68,0.0,0.0,37,0.00,,---,0.00,0.00,VWS V14.01,2013-01-04 13:15:00,
2013-01-04 05:20:00,23.5,1.0,30.34,ENE,72,0.0,0.0,37,0.00,,,0.00,0,weatherlink.com 1.10,2013-01-04 13:20:00,
2013-01-04 05:30:00,23.5,0.5,30.34,ENE,68,0.0,1.0,36,0.00,,---,0.00,0.00,VWS V14.01,2013-01-04 13:30:00,
2013-01-04 05:35:00,23.6,1.0,30.34,ENE,72,2.0,3.0,37,0.00,,,0.00,0,weatherlink.com 1.10,2013-01-04 13:35:00,
2013-01-04 05:45:00,23.8,0.8,30.34,ENE,68,2.0,3.0,36,0.00,,---,0.00,0.00,VWS V14.01,2013-01-04 13:45:00,
2013-01-04 05:50:00,24.2,1.0,30.34,ENE,72,0.0,2.0,36,0.00,,,0.00,0,weatherlink.com 1.10,2013-01-04 13:50:00,
2013-01-04 06:00:00,24.2,1.1,30.35,ENE,68,0.0,2.0,36,0.00,,---,0.00,0.00,VWS V14.01,2013-01-04 14:00:00,
2013-01-04 06:05:00,24.2,1.0,30.35,ENE,71,1.0,2.0,37,0.00,,,0.00,0,weatherlink.com 1.10,2013-01-04 14:05:00,
2013-01-04 06:15:00,24.2,1.1,30.35,ENE,68,0.0,2.0,36,0.00,,---,0.00,0.00,VWS V14.01,2013-01-04 14:15:00,
2013-01-04 06:20:00,24.2,1.0,30.35,ENE,71,0.0,0.0,36,0.00,,,0.00,0,weatherlink.com 1.10,2013-01-04 14:20:00,
2013-01-04 06:30:00,24.2,1.7,30.35,ENE,68,0.0,0.0,37,0.00,,---,0.00,0.00,VWS V14.01,2013-01-04 14:30:00,
2013-01-04 06:35:00,23.9,0.0,30.35,ENE,71,0.0,1.0,36,0.00,,,0.00,0,weatherlink.com 1.10,2013-01-04 14:35:00,
2013-01-04 06:45:00,23.9,0.8,30.35,ENE,68,0.0,1.0,36,0.00,,---,0.00,0.00,VWS V14.01,2013-01-04 14:45:00,
2013-01-04 06:50:00,23.6,1.0,30.35,ENE,71,0.0,1.0,37,0.00,,,0.00,0,weatherlink.com 1.10,2013-01-04 14:50:00,
2013-01-04 07:00:00,23.5,0.5,30.35,ENE,68,0.0,0.0,36,0.00,,---,0.00,2.00,VWS V14.01,2013-01-04 15:00:00,
2013-01-04 07:05:00,23.2,0.0,30.36,ENE,72,0.0,0.0,36,0.00,,,0.00,9,weatherlink.com 1.10,2013-01-04 15:05:00,
2013-01-04 07:15:00,23.0,0.6,30.36,ENE,68,0.0,0.0,37,0.00,,---,0.00,15.00,VWS V14.01,2013-01-04 15:15:00,
2013-01-04 07:20:00,22.5,0.0,30.36,ENE,71,0.0,0.0,37,0.00,,,0.00,53,weatherlink.com 1.10,2013-01-04 15:20:00,
2013-01-04 07:30:00,22.4,1.2,30.37,ENE,68,0.0,0.0,39,0.00,,---,0.00,61.00,VWS V14.01,2013-01-04 15:30:00,
2013-01-04 07:35:00,22.4,1.0,30.37,ENE,72,0.0,0.0,39,0.00,,,0.00,100,weatherlink.com 1.10,2013-01-04 15:35:00,
2013-01-04 07:45:00,22.5,1.3,30.38,ENE,68,1.0,3.0,39,0.00,,---,0.00,114.00,VWS V14.01,2013-01-04 15:45:00,
2013-01-04 07:50:00,23.5,1.0,30.38,ENE,72,3.0,3.0,38,0.00,,,0.00,156,weatherlink.com 1.10,2013-01-04 15:50:00,
2013-01-04 08:00:00,23.9,0.8,30.38,ENE,68,2.0,4.0,36,0.00,,---,0.00,165.00,VWS V14.01,2013-01-04 16:00:00,
2013-01-04 08:05:00,25.4,2.0,30.38,ENE,72,1.0,2.0,36,0.00,,,0.00,199,weatherlink.com 1.10,2013-01-04 16:05:00,
2013-01-04 08:15:00,25.8,1.9,30.38,ENE,68,1.0,3.0,35,0.00,,---,0.00,207.00,VWS V14.01,2013-01-04 16:15:00,
2013-01-04 08:20:00,27.8,3.0,30.38,ENE,72,0.0,0.0,35,0.00,,,0.00,241,weatherlink.com 1.10,2013-01-04 16:20:00,
2013-01-04 08:30:00,28.2,2.8,30.38,ENE,68,0.0,0.0,33,0.00,,---,0.00,249.00,VWS V14.01,2013-01-04 16:30:00,
2013-01-04 08:36:00,31.8,3.0,30.39,ENE,72,0.0,0.0,29,0.00,,,0.00,283,weatherlink.com 1.10,2013-01-04 16:36:00,
2013-01-04 08:45:00,32.3,2.1,30.39,ENE,68,0.0,0.0,27,0.00,,---,0.00,290.00,VWS V14.01,2013-01-04 16:45:00,
2013-01-04 08:51:00,34.6,4.0,30.39,ENE,72,0.0,0.0,28,0.00,,,0.00,322,weatherlink.com 1.10,2013-01-04 16:51:00,
2013-01-04 09:00:00,35.0,6.7,30.39,ENE,68,1.0,5.0,30,0.00,,---,0.00,330.00,VWS V14.01,2013-01-04 17:00:00,
2013-01-04 09:06:00,37.0,8.0,30.40,ENE,68,3.0,6.0,30,0.00,,,0.00,360,weatherlink.com 1.10,2013-01-04 17:06:00,
2013-01-04 09:15:00,37.4,7.3,30.40,ENE,68,3.0,7.0,28,0.00,,---,0.00,367.00,VWS V14.01,2013-01-04 17:15:00,
2013-01-04 09:21:00,39.1,8.0,30.40,ENE,68,0.0,6.0,28,0.00,,,0.00,397,weatherlink.com 1.10,2013-01-04 17:21:00,
2013-01-04 09:30:00,39.2,8.9,30.40,ENE,68,1.0,7.0,28,0.00,,---,0.00,402.00,VWS V14.01,2013-01-04 17:30:00,
2013-01-04 09:36:00,40.3,9.0,30.40,ENE,68,0.0,2.0,27,0.00,,,0.00,429,weatherlink.com 1.10,2013-01-04 17:36:00,
2013-01-04 09:45:00,40.5,8.3,30.40,ENE,68,1.0,4.0,26,0.00,,---,0.00,435.00,VWS V14.01,2013-01-04 17:45:00,
2013-01-04 09:51:00,41.8,9.0,30.40,ENE,68,2.0,3.0,26,0.00,,,0.00,459,weatherlink.com 1.10,2013-01-04 17:51:00,
2013-01-04 10:00:00,42.0,6.9,30.40,ENE,68,1.0,3.0,23,0.00,,---,0.00,465.00,VWS V14.01,2013-01-04 18:00:00,
2013-01-04 10:06:00,43.5,9.0,30.39,ENE,68,3.0,4.0,24,0.00,,,0.00,489,weatherlink.com 1.10,2013-01-04 18:06:00,
2013-01-04 10:15:00,43.5,8.2,30.39,ENE,68,2.0,4.0,23,0.00,,---,0.00,491.00,VWS V14.01,2013-01-04 18:15:00,
2013-01-04 10:21:00,44.8,9.0,30.39,ENE,68,1.0,4.0,23,0.00,,,0.00,512,weatherlink.com 1.10,2013-01-04 18:21:00,
2013-01-04 10:30:00,45.1,8.5,30.38,ENE,68,1.0,5.0,22,0.00,,---,0.00,514.00,VWS V14.01,2013-01-04 18:30:00,
2013-01-04 10:36:00,46.2,9.0,30.38,ENE,68,0.0,4.0,22,0.00,,,0.00,533,weatherlink.com 1.10,2013-01-04 18:36:00,
2013-01-04 10:45:00,46.4,8.6,30.38,ENE,68,1.0,4.0,21,0.00,,---,0.00,535.00,VWS V14.01,2013-01-04 18:45:00,
2013-01-04 10:51:00,47.3,9.0,30.38,ENE,68,0.0,4.0,21,0.00,,,0.00,550,weatherlink.com 1.10,2013-01-04 18:51:00,
2013-01-04 11:00:00,47.4,10.5,30.37,ENE,68,2.0,5.0,22,0.00,,---,0.00,552.00,VWS V14.01,2013-01-04 19:00:00,
2013-01-04 11:06:00,47.9,11.0,30.36,ENE,68,0.0,5.0,22,0.00,,,0.00,564,weatherlink.com 1.10,2013-01-04 19:06:00,
2013-01-04 11:15:00,48.0,9.9,30.35,ENE,68,1.0,4.0,21,0.00,,---,0.00,566.00,VWS V14.01,2013-01-04 19:15:00,
2013-01-04 11:21:00,48.8,10.0,30.35,ENE,68,2.0,4.0,21,0.00,,,0.00,577,weatherlink.com 1.10,2013-01-04 19:21:00,
2013-01-04 11:30:00,48.9,10.7,30.34,ENE,68,1.0,4.0,21,0.00,,---,0.00,577.00,VWS V14.01,2013-01-04 19:30:00,
2013-01-04 11:36:00,49.5,10.0,30.34,ENE,68,0.0,4.0,20,0.00,,,0.00,582,weatherlink.com 1.10,2013-01-04 19:36:00,
2013-01-04 11:45:00,49.7,10.3,30.33,ENE,68,1.0,4.0,20,0.00,,---,0.00,583.00,VWS V14.01,2013-01-04 19:45:00,
2013-01-04 11:51:00,50.1,10.0,30.33,ENE,68,0.0,4.0,20,0.00,,,0.00,585,weatherlink.com 1.10,2013-01-04 19:51:00,
2013-01-04 12:00:00,50.2,9.6,30.32,ENE,68,1.0,4.0,19,0.00,,---,0.00,585.00,VWS V14.01,2013-01-04 20:00:00,
2013-01-04 12:07:00,51.1,9.0,30.32,ENE,68,0.0,4.0,18,0.00,,,0.00,584,weatherlink.com 1.10,2013-01-04 20:07:00,
2013-01-04 12:15:00,51.4,9.3,30.32,ENE,68,1.0,4.0,18,0.00,,---,0.00,584.00,VWS V14.01,2013-01-04 20:15:00,
2013-01-04 12:22:00,52.0,9.0,30.31,ENE,68,1.0,4.0,18,0.00,,,0.00,578,weatherlink.com 1.10,2013-01-04 20:22:00,
2013-01-04 12:30:00,52.1,8.6,30.31,ENE,68,1.0,4.0,17,0.00,,---,0.00,578.00,VWS V14.01,2013-01-04 20:30:00,
2013-01-04 12:37:00,52.6,9.0,30.30,ENE,68,1.0,3.0,17,0.00,,,0.00,571,weatherlink.com 1.10,2013-01-04 20:37:00,
2013-01-04 12:45:00,52.7,9.1,30.30,ENE,68,1.0,3.0,17,0.00,,---,0.00,569.00,VWS V14.01,2013-01-04 20:45:00,
2013-01-04 12:52:00,52.9,9.0,30.29,ENE,68,2.0,4.0,17,0.00,,,0.00,557,weatherlink.com 1.10,2013-01-04 20:52:00,
2013-01-04 13:00:00,53.0,9.4,30.29,ENE,68,1.0,5.0,17,0.00,,---,0.00,557.00,VWS V14.01,2013-01-04 21:00:00,
2013-01-04 13:07:00,53.2,9.0,30.29,ENE,67,1.0,4.0,17,0.00,,,0.00,543,weatherlink.com 1.10,2013-01-04 21:07:00,
2013-01-04 13:15:00,53.4,8.4,30.28,ENE,68,2.0,4.0,16,0.00,,---,0.00,540.00,VWS V14.01,2013-01-04 21:15:00,
2013-01-04 13:22:00,54.1,9.0,30.28,ENE,66,3.0,6.0,16,0.00,,,0.00,522,weatherlink.com 1.10,2013-01-04 21:22:00,
2013-01-04 13:30:00,54.0,8.8,30.28,ENE,68,2.0,7.0,16,0.00,,---,0.00,520.00,VWS V14.01,2013-01-04 21:30:00,
2013-01-04 13:37:00,54.4,9.0,30.28,ENE,66,2.0,5.0,16,0.00,,,0.00,497,weatherlink.com 1.10,2013-01-04 21:37:00,
2013-01-04 13:45:00,54.3,9.1,30.28,ENE,68,2.0,5.0,16,0.00,,---,0.00,496.00,VWS V14.01,2013-01-04 21:45:00,
2013-01-04 13:52:00,54.1,9.0,30.28,ENE,66,3.0,5.0,16,0.00,,,0.00,473,weatherlink.com 1.10,2013-01-04 21:52:00,
2013-01-04 14:00:00,54.1,8.9,30.27,ENE,68,2.0,5.0,16,0.00,,---,0.00,470.00,VWS V14.01,2013-01-04 22:00:00,
2013-01-04 14:15:00,54.1,7.5,30.27,ENE,68,3.0,8.0,15,0.00,,---,0.00,441.00,VWS V14.01,2013-01-04 22:15:00,
2013-01-04 14:22:00,53.9,7.0,30.28,ENE,66,0.0,5.0,15,0.00,,,0.00,413,weatherlink.com 1.10,2013-01-04 22:22:00,
2013-01-04 14:30:00,54.0,7.4,30.27,ENE,68,2.0,5.0,15,0.00,,---,0.00,410.00,VWS V14.01,2013-01-04 22:30:00,
2013-01-04 14:37:00,54.1,6.0,30.27,ENE,68,4.0,8.0,14,0.00,,,0.00,378,weatherlink.com 1.10,2013-01-04 22:37:00,
2013-01-04 14:45:00,54.0,5.9,30.28,ENE,68,4.0,9.0,14,0.00,,---,0.00,376.00,VWS V14.01,2013-01-04 22:45:00,
2013-01-04 14:52:00,53.8,5.0,30.28,ENE,70,0.0,8.0,14,0.00,,,0.00,341,weatherlink.com 1.10,2013-01-04 22:52:00,
2013-01-04 15:00:00,53.7,5.7,30.28,ENE,68,4.0,8.0,14,0.00,,---,0.00,340.00,VWS V14.01,2013-01-04 23:00:00,
2013-01-04 15:07:00,53.6,5.0,30.28,ENE,70,4.0,5.0,14,0.00,,,0.00,302,weatherlink.com 1.10,2013-01-04 23:07:00,
2013-01-04 15:15:00,53.5,5.5,30.28,ENE,68,4.0,7.0,14,0.00,,---,0.00,273.00,VWS V14.01,2013-01-04 23:15:00,
2013-01-04 15:23:00,53.3,5.0,30.27,ENE,70,4.0,8.0,14,0.00,,,0.00,264,weatherlink.com 1.10,2013-01-04 23:23:00,
2013-01-04 15:30:00,53.3,5.3,30.27,ENE,68,4.0,9.0,14,0.00,,---,0.00,229.00,VWS V14.01,2013-01-04 23:30:00,
2013-01-04 15:38:00,53.2,5.0,30.27,ENE,69,8.0,8.0,14,0.00,,,0.00,220,weatherlink.com 1.10,2013-01-04 23:38:00,
2013-01-04 15:45:00,53.2,5.3,30.27,ENE,68,4.0,8.0,14,0.00,,---,0.00,218.00,VWS V14.01,2013-01-04 23:45:00,
2013-01-04 15:53:00,53.1,5.0,30.27,ENE,69,4.0,7.0,14,0.00,,,0.00,178,weatherlink.com 1.10,2013-01-04 23:53:00,
2013-01-04 16:00:00,53.0,5.1,30.27,ENE,68,4.0,8.0,14,0.00,,---,0.00,176.00,VWS V14.01,2013-01-05 00:00:00,
2013-01-04 16:08:00,52.6,4.0,30.27,ENE,69,4.0,7.0,14,0.00,,,0.00,123,weatherlink.com 1.10,2013-01-05 00:08:00,
2013-01-04 16:15:00,52.6,4.8,30.27,ENE,68,4.0,7.0,14,0.00,,---,0.00,121.00,VWS V14.01,2013-01-05 00:15:00,
2013-01-04 16:23:00,52.0,4.0,30.27,ENE,70,3.0,5.0,14,0.00,,,0.00,70,weatherlink.com 1.10,2013-01-05 00:23:00,
2013-01-04 16:30:00,52.0,4.3,30.28,ENE,68,3.0,4.0,14,0.00,,---,0.00,70.00,VWS V14.01,2013-01-05 00:30:00,
2013-01-04 16:38:00,51.4,3.0,30.28,ENE,70,1.0,3.0,14,0.00,,,0.00,26,weatherlink.com 1.10,2013-01-05 00:38:00,
2013-01-04 16:45:00,51.3,3.7,30.28,ENE,68,1.0,3.0,14,0.00,,---,0.00,25.00,VWS V14.01,2013-01-05 00:45:00,
2013-01-04 16:53:00,50.4,4.0,30.28,ENE,70,1.0,3.0,15,0.00,,,0.00,5,weatherlink.com 1.10,2013-01-05 00:53:00,
2013-01-04 17:00:00,50.4,4.5,30.27,ENE,68,2.0,3.0,15,0.00,,---,0.00,4.00,VWS V14.01,2013-01-05 01:00:00,
2013-01-04 17:08:00,49.5,3.0,30.28,ENE,70,1.0,3.0,15,0.00,,,0.00,0,weatherlink.com 1.10,2013-01-05 01:08:00,
2013-01-04 17:15:00,49.5,3.8,30.28,ENE,68,2.0,3.0,15,0.00,,---,0.00,0.00,VWS V14.01,2013-01-05 01:15:00,
2013-01-04 17:23:00,48.6,3.0,30.28,ENE,70,0.0,3.0,15,0.00,,,0.00,0,weatherlink.com 1.10,2013-01-05 01:23:00,
2013-01-04 17:30:00,48.6,4.4,30.28,ENE,68,0.0,3.0,16,0.00,,---,0.00,0.00,VWS V14.01,2013-01-05 01:30:00,
2013-01-04 17:38:00,47.3,3.0,30.28,ENE,70,0.0,0.0,16,0.00,,,0.00,0,weatherlink.com 1.10,2013-01-05 01:38:00,
2013-01-04 17:45:00,47.3,4.7,30.28,ENE,68,0.0,0.0,17,0.00,,---,0.00,0.00,VWS V14.01,2013-01-05 01:45:00,
2013-01-04 17:53:00,44.9,4.0,30.29,ENE,70,0.0,0.0,18,0.00,,,0.00,0,weatherlink.com 1.10,2013-01-05 01:53:00,
2013-01-04 18:00:00,45.0,4.1,30.29,ENE,68,0.0,0.0,18,0.00,,---,0.00,0.00,VWS V14.01,2013-01-05 02:00:00,
2013-01-04 18:08:00,42.9,2.0,30.29,ENE,69,2.0,2.0,18,0.00,,,0.00,0,weatherlink.com 1.10,2013-01-05 02:08:00,
2013-01-04 18:15:00,43.0,2.4,30.30,ENE,68,1.0,2.0,18,0.00,,---,0.00,0.00,VWS V14.01,2013-01-05 02:15:00,
2013-01-04 18:24:00,41.5,1.0,30.29,ENE,70,2.0,3.0,18,0.00,,,0.00,0,weatherlink.com 1.10,2013-01-05 02:24:00,
2013-01-04 18:30:00,41.4,1.1,30.30,ENE,68,2.0,3.0,18,0.00,,---,0.00,0.00,VWS V14.01,2013-01-05 02:30:00,
2013-01-04 18:39:00,39.3,-1.0,30.30,ENE,69,0.0,2.0,18,0.00,,,0.00,0,weatherlink.com 1.10,2013-01-05 02:39:00,
2013-01-04 18:45:00,39.5,0.7,30.30,ENE,68,1.0,2.0,19,0.00,,---,0.00,0.00,VWS V14.01,2013-01-05 02:45:00,
2013-01-04 18:54:00,38.0,-1.0,30.30,ENE,70,2.0,3.0,19,0.00,,,0.00,0,weatherlink.com 1.10,2013-01-05 02:54:00,
2013-01-04 19:00:00,36.3,1.1,30.31,ENE,68,0.0,0.0,22,0.00,,---,0.00,,VWS V14.01,2013-01-05 03:00:00,
2013-01-04 19:09:00,37.3,-1.0,30.30,ENE,69,1.0,3.0,20,0.00,,,0.00,0,weatherlink.com 1.10,2013-01-05 03:09:00,
2013-01-04 19:15:00,35.7,0.6,30.31,ENE,68,0.0,0.0,22,0.00,,---,0.00,,VWS V14.01,2013-01-05 03:15:00,
2013-01-04 19:17:00,39.5,0.7,30.30,ENE,68,1.0,2.0,19,0.00,,---,0.00,0.00,VWS V14.01,2013-01-05 03:17:00,
2013-01-04 19:22:00,37.0,0.7,30.30,ENE,69,0.0,2.0,21,0.00,,---,0.00,0.00,VWS V14.01,2013-01-05 03:22:00,
2013-01-04 19:27:00,36.9,0.6,30.30,ENE,70,0.0,2.0,21,0.00,,---,0.00,0.00,VWS V14.01,2013-01-05 03:27:00,
2013-01-04 19:30:00,36.8,0.5,30.30,ENE,69,0.0,2.0,21,0.00,,CLR,0.00,0.00,VWS V14.01,2013-01-05 03:30:00,
2013-01-04 19:32:00,36.8,0.5,30.30,ENE,69,0.0,0.0,21,0.00,,---,0.00,0.00,VWS V14.01,2013-01-05 03:32:00,
2013-01-04 19:37:00,36.8,0.5,30.31,ENE,70,0.0,0.0,21,0.00,,---,0.00,0.00,VWS V14.01,2013-01-05 03:37:00,
2013-01-04 19:42:00,36.6,0.4,30.31,ENE,69,0.0,0.0,21,0.00,,---,0.00,0.00,VWS V14.01,2013-01-05 03:42:00,
2013-01-04 19:45:00,36.6,0.4,30.31,ENE,70,0.0,0.0,21,0.00,,CLR,0.00,0.00,VWS V14.01,2013-01-05 03:45:00,
2013-01-04 19:47:00,36.6,0.4,30.31,ENE,69,0.0,0.0,21,0.00,,---,0.00,0.00,VWS V14.01,2013-01-05 03:47:00,
2013-01-04 19:52:00,36.3,1.1,30.31,ENE,70,0.0,0.0,22,0.00,,---,0.00,0.00,VWS V14.01,2013-01-05 03:52:00,
2013-01-04 19:57:00,36.0,-0.1,30.31,ENE,70,0.0,0.0,21,0.00,,---,0.00,0.00,VWS V14.01,2013-01-05 03:57:00,
2013-01-04 20:00:00,35.9,0.8,30.31,ENE,69,0.0,0.0,22,0.00,,CLR,0.00,0.00,VWS V14.01,2013-01-05 04:00:00,
2013-01-04 20:02:00,35.9,-0.2,30.31,ENE,70,0.0,0.0,21,0.00,,---,0.00,0.00,VWS V14.01,2013-01-05 04:02:00,
2013-01-04 20:07:00,35.8,0.7,30.31,ENE,69,0.0,0.0,22,0.00,,---,0.00,0.00,VWS V14.01,2013-01-05 04:07:00,
2013-01-04 20:12:00,35.6,0.5,30.31,ENE,70,0.0,0.0,22,0.00,,---,0.00,0.00,VWS V14.01,2013-01-05 04:12:00,
2013-01-04 20:15:00,35.5,0.4,30.31,ENE,70,0.0,0.0,22,0.00,,CLR,0.00,0.00,VWS V14.01,2013-01-05 04:15:00,
2013-01-04 20:17:00,35.3,0.3,30.31,ENE,70,0.0,0.0,22,0.00,,---,0.00,0.00,VWS V14.01,2013-01-05 04:17:00,
2013-01-04 20:22:00,35.0,1.0,30.31,ENE,69,0.0,0.0,23,0.00,,---,0.00,0.00,VWS V14.01,2013-01-05 04:22:00,
2013-01-04 20:27:00,34.7,0.7,30.32,ENE,69,0.0,0.0,23,0.00,,---,0.00,0.00,VWS V14.01,2013-01-05 04:27:00,
2013-01-04 20:30:00,34.4,0.4,30.32,ENE,70,0.0,0.0,23,0.00,,CLR,0.00,0.00,VWS V14.01,2013-01-05 04:30:00,
2013-01-04 20:32:00,34.4,0.4,30.32,ENE,70,0.0,0.0,23,0.00,,---,0.00,0.00,VWS V14.01,2013-01-05 04:32:00,
2013-01-04 20:37:00,34.1,1.1,30.31,ENE,70,0.0,2.0,24,0.00,,---,0.00,0.00,VWS V14.01,2013-01-05 04:37:00,
2013-01-04 20:42:00,34.0,0.1,30.32,ENE,69,0.0,2.0,23,0.00,,---,0.00,0.00,VWS V14.01,2013-01-05 04:42:00,
2013-01-04 20:45:00,34.0,1.0,30.32,ENE,69,0.0,2.0,24,0.00,,CLR,0.00,0.00,VWS V14.01,2013-01-05 04:45:00,
2013-01-04 20:47:00,34.0,1.0,30.31,ENE,70,0.0,0.0,24,0.00,,---,0.00,0.00,VWS V14.01,2013-01-05 04:47:00,
2013-01-04 20:52:00,34.0,1.0,30.32,ENE,69,0.0,0.0,24,0.00,,---,0.00,0.00,VWS V14.01,2013-01-05 04:52:00,
2013-01-04 20:57:00,34.0,1.0,30.32,ENE,69,0.0,0.0,24,0.00,,---,0.00,0.00,VWS V14.01,2013-01-05 04:57:00,
2013-01-04 21:00:00,34.0,1.0,30.32,North,0,0.0,0.0,24,0.00,,---,0.00,0.00,VWS V14.01,2013-01-05 05:00:00,
2013-01-04 21:04:00,34.0,1.0,30.32,ENE,69,0.0,0.0,24,0.00,,,0.00,0,weatherlink.com 1.10,2013-01-05 05:04:00,
2013-01-04 21:15:00,34.0,1.0,30.32,North,0,0.0,0.0,24,0.00,,---,0.00,0.00,VWS V14.01,2013-01-05 05:15:00,
2013-01-04 21:18:00,34.0,1.0,30.32,ENE,69,0.0,0.0,24,0.00,,,0.00,0,weatherlink.com 1.10,2013-01-05 05:18:00,
2013-01-04 21:30:00,33.7,0.8,30.32,North,0,0.0,0.0,24,0.00,,---,0.00,0.00,VWS V14.01,2013-01-05 05:30:00,
2013-01-04 21:33:00,33.2,0.0,30.32,ENE,69,0.0,0.0,24,0.00,,,0.00,0,weatherlink.com 1.10,2013-01-05 05:33:00,
2013-01-04 21:45:00,33.1,0.2,30.32,North,0,0.0,0.0,24,0.00,,---,0.00,0.00,VWS V14.01,2013-01-05 05:45:00,
2013-01-04 21:48:00,32.8,-1.0,30.32,ENE,70,0.0,0.0,24,0.00,,,0.00,0,weatherlink.com 1.10,2013-01-05 05:48:00,
2013-01-04 22:00:00,32.6,-0.2,30.33,North,0,0.0,0.0,24,0.00,,---,0.00,0.00,VWS V14.01,2013-01-05 06:00:00,
2013-01-04 22:03:00,32.2,-1.0,30.33,ENE,70,0.0,0.0,24,0.00,,,0.00,0,weatherlink.com 1.10,2013-01-05 06:03:00,
2013-01-04 22:15:00,32.1,-0.6,30.33,ENE,68,0.0,2.0,24,0.00,,---,0.00,0.00,VWS V14.01,2013-01-05 06:15:00,
2013-01-04 22:19:00,31.8,-1.0,30.33,ENE,70,0.0,2.0,24,0.00,,,0.00,0,weatherlink.com 1.10,2013-01-05 06:19:00,
2013-01-04 22:30:00,31.6,-0.2,30.33,ENE,68,0.0,1.0,25,0.00,,---,0.00,0.00,VWS V14.01,2013-01-05 06:30:00,
2013-01-04 22:34:00,31.3,-1.0,30.33,ENE,70,0.0,0.0,25,0.00,,,0.00,0,weatherlink.com 1.10,2013-01-05 06:34:00,
2013-01-04 22:45:00,31.1,0.2,30.33,ENE,68,0.0,0.0,26,0.00,,---,0.00,0.00,VWS V14.01,2013-01-05 06:45:00,
2013-01-04 22:49:00,30.7,-1.0,30.33,ENE,69,0.0,0.0,25,0.00,,,0.00,0,weatherlink.com 1.10,2013-01-05 06:49:00,
2013-01-04 23:00:00,30.6,-0.2,30.33,ENE,68,0.0,0.0,26,0.00,,---,0.00,0.00,VWS V14.01,2013-01-05 07:00:00,
2013-01-04 23:04:00,30.3,-1.0,30.33,ENE,69,0.0,0.0,26,0.00,,,0.00,0,weatherlink.com 1.10,2013-01-05 07:04:00,
2013-01-04 23:15:00,30.2,-0.6,30.33,ENE,68,0.0,2.0,26,0.00,,---,0.00,0.00,VWS V14.01,2013-01-05 07:15:00,
2013-01-04 23:19:00,29.8,-2.0,30.33,ENE,69,0.0,2.0,25,0.00,,,0.00,0,weatherlink.com 1.10,2013-01-05 07:19:00,
2013-01-04 23:30:00,29.7,-1.8,30.33,ENE,68,1.0,4.0,25,0.00,,---,0.00,0.00,VWS V14.01,2013-01-05 07:30:00,
2013-01-04 23:34:00,29.3,-3.0,30.34,ENE,69,3.0,4.0,25,0.00,,,0.00,0,weatherlink.com 1.10,2013-01-05 07:34:00,
2013-01-04 23:45:00,29.4,-2.9,30.33,ENE,68,3.0,5.0,24,0.00,,---,0.00,0.00,VWS V14.01,2013-01-05 07:45:00,
2013-01-04 23:49:00,29.5,-3.0,30.33,ENE,69,3.0,5.0,24,0.00,,,0.00,0,weatherlink.com 1.10,2013-01-05 07:49:00,